CAPE
116 289 579 552 810 1754 2332 2450 2564 3092 3068 2922 2686 2183 1961 2140 2157 1975 1932 1958 1911 1849 1568 1668 1709 1863 1672 1277 1124 1072 986 883 1090 1172 1394 1709 1680 1815 918 1130 1222 1140 1551
118 266 667 894 1442 2157 2606 2635 2683 2742 2549 2453 2491 2180 2150 2154 2093 1917 1912 1800 1781 1828 1613 1501 1582 1715 1812 1671 1158 1165 1182 729 467 1070 1226 1269 1602 1604 1198 1721 1469 1164 1626
108 442 657 1543 2041 1895 2435 2550 2383 2097 1975 2341 2207 2197 2233 1934 1949 1914 1864 1837 1851 1818 1691 1716 1571 1591 1619 1438 1457 1429 1304 886 441 960 1318 937 1088 1233 1310 1646 1738 1415 1295
179 234 816 1914 2198 1859 2164 2450 2411 1688 1807 2036 2165 2039 1907 1914 1777 1700 1670 1616 1540 1498 1520 1556 1663 1658 1440 1388 1384 1262 1168 1150 452 996 1063 916 1044 1390 1220 1761 1674 1480 1291
172 248 1406 2122 2312 1861 1871 1974 2142 1780 1956 2108 2097 1944 1964 1827 1719 1662 1646 1711 1763 1765 1568 1416 1400 1414 1442 1390 1338 1293 1255 1326 927 579 1260 1301 1085 1503 1027 1104 1206 1605 1390
175 333 1614 2020 1631 1793 1918 2001 2057 1861 2114 2079 2018 1988 1869 1773 1727 1733 1762 1830 1590 1788 1713 1610 1533 1411 1372 1346 1351 1336 1549 1698 1501 730 1072 1395 1147 872 980 1283 1393 1902 1820
189 617 1259 2237 2072 2015 1832 2092 1799 1701 1691 1916 2031 1902 1832 1741 1676 1676 1756 1821 1892 1775 1428 1384 1429 1470 1354 1277 1416 1430 1573 1620 1833 1033 841 903 1053 1592 1602 1606 1642 1644 1732
324 771 998 1810 2058 1996 1874 1860 1776 1825 1870 1777 1893 1942 1779 1652 1596 1527 1520 1743 1788 1696 1445 1289 1273 1352 1448 1376 1572 1681 1591 1464 1479 1112 809 941 1160 1629 1740 1452 1193 1720 1753
588 1005 1095 1015 1459 1622 1610 1672 1757 1817 1944 1946 1845 1877 1859 1625 1449 1434 1491 1591 1517 1512 1550 1609 1565 1410 1422 1539 1539 1626 1676 1351 1293 1094 399 735 1367 1688 1463 1216 747 1517 1656
746 1101 1250 1116 1125 1309 1463 1666 1695 1763 1886 1965 1922 1763 1783 1738 1607 1665 1957 1686 1791 1582 1541 1579 1491 1378 1369 1645 1621 1197 1367 891 916 1150 741 1103 1428 1742 1411 1611 733 1497 1484
749 789 878 1001 1235 1320 1418 1374 1574 1722 1763 1814 1759 1748 1695 1821 1831 1795 1693 1921 1903 1605 1746 1648 1650 1790 1226 1781 1810 1178 626 232 170 789 903 1169 1702 1420 1524 1786 1396 1181 1555
623 662 736 655 824 1201 993 1498 1604 1347 1256 1555 1630 1824 1779 1721 1693 1588 1993 1944 1909 1819 1756 1758 1941 1838 1668 1556 1569 1850 1468 509 338 896 968 1273 1373 1364 1558 1476 1498 1547 1381
363 465 643 845 998 1046 1013 1410 1690 1219 1313 1499 2002 1812 1557 1598 1650 1554 1805 1680 1629 1423 1722 1653 1723 1738 2018 1757 1849 1847 1847 1129 917 659 1063 1192 1338 1102 1062 1500 1229 1547 1592
355 521 730 1119 1441 1281 1167 1395 1562 1204 1238 1147 1155 1589 1368 1224 1564 2033 1872 1880 1734 1889 2232 1518 1748 2008 2032 2052 1990 1955 1596 1402 1064 247 861 987 1748 1761 1423 1231 1880 1349 1695
292 428 752 1147 1559 1603 1662 1460 1586 1437 962 861 1122 973 893 1208 2112 2073 2222 1973 1931 1955 2071 2116 1768 1864 1797 1732 1871 1945 1340 1526 1003 679 809 1802 1553 1602 1718 1701 1523 1562 1652
209 314 642 990 1308 1631 1543 1684 1536 1372 1030 1072 793 745 1026 1147 2063 2032 2216 1905 1918 1952 1986 1900 2416 1859 1678 1374 1193 1902 1757 1196 1449 1023 1022 1245 1462 1562 1517 1319 1481 1632 1602
170 305 551 916 1114 1622 1596 1408 1334 961 744 592 560 918 939 1193 1870 2337 2127 1919 1676 2050 2194 1985 2167 1983 386 86 28 1405 1613 1696 1519 907 1241 1144 972 1434 1260 1325 1463 1674 1710
230 354 534 540 860 1243 1411 1358 1064 634 454 495 460 683 1177 1452 1950 2208 2068 1970 2004 2028 2314 2617 1601 1373 405 31 51 34 52 1190 1624 1462 1528 1243 1073 683 1190 1802 1676 1529 1279
596 556 593 694 764 1043 1255 1165 947 605 537 401 593 1272 1705 1974 1980 2130 2041 1921 2070 1796 1921 1596 1446 800 200 62 7 9 74 162 343 61 978 1585 1423 1186 1024 1179 1467 1690 965
784 925 969 910 1027 1084 1007 1050 709 435 412 886 1111 1344 1719 2107 2203 2236 1410 1571 1897 1900 1498 1079 1458 410 278 40 0 38 89 117 364 344 722 767 885 740 1080 1545 1277 1268 1201
781 938 1104 1111 1443 1048 883 675 519 280 584 1085 1392 1712 1703 1984 2164 2314 1761 1834 1592 2409 1888 2046 1264 710 208 51 1 20 97 204 375 485 821 912 1109 1177 1513 1685 1580 1599 1105
825 986 1199 1293 1496 1219 923 995 490 741 774 1226 1508 1825 1978 1914 2204 2241 2209 2072 2081 1869 2041 1863 1097 395 91 7 0 7 0 78 268 255 711 769 802 721 709 675 970 1431 1631
906 1205 1521 1728 1829 1389 1427 994 957 967 1201 1225 1286 1704 1777 1981 2132 2354 1804 1652 2213 2089 1727 1862 1188 493 101 42 17 19 11 1 100 168 274 688 848 523 198 251 711 1177 1188
1058 971 1413 1456 1798 1427 1770 1336 1632 922 1033 1166 1471 1489 1679 1934 2030 2218 2338 2234 2312 1863 1928 1686 965 448 96 35 56 20 35 174 0 75 87 257 527 467 206 45 305 816 424
835 794 880 1373 1710 1721 1684 1650 1419 1531 1138 1236 1458 2085 2410 2312 2103 2067 2283 2368 2354 2060 1928 1696 834 378 154 2 15 26 53 0 130 118 46 173 292 271 232 23 3 212 187
609 777 769 1391 1657 1736 1709 1702 1855 1772 1777 1283 1558 1445 1468 1397 1595 2206 2174 2354 2344 2172 1974 1665 1164 611 296 6 0 87 0 0 13 104 150 200 137 67 0 52 15 13 185
CIN
-1 -14 -2 -4 -1 0 0 0 0 0 0 0 0 0 0 0 0 0 0 0 0 0 0 0 0 0 0 -2 -11 -7 -5 -4 0 0 0 0 0 0 -4 -3 -5 -1 -1
-6 -15 -2 -2 0 0 0 0 0 0 0 0 0 0 0 0 0 0 0 0 0 0 0 0 0 0 0 0 -6 -7 0 -5 -10 0 0 0 0 0 0 0 -1 0 0
-6 -1 -1 0 0 0 0 0 0 0 0 0 0 0 0 0 0 0 0 0 0 0 0 0 0 0 0 0 -4 -4 -2 -1 -14 0 -1 0 0 0 0 0 0 0 0
-16 -6 0 -1 0 0 0 0 0 -2 -4 0 0 0 0 0 0 0 0 0 0 0 0 0 0 0 -7 -10 -8 -8 -4 0 -22 -1 0 0 0 0 0 0 0 0 0
-29 -14 0 0 0 0 0 0 0 -4 -1 0 0 0 0 0 0 0 0 0 0 0 0 0 -1 -3 -6 -9 -10 -12 -6 -1 -7 -8 0 0 0 0 0 -1 0 0 0
-30 -7 0 0 0 0 0 0 -1 0 0 0 0 0 0 0 0 0 0 -3 0 0 0 0 0 -5 -6 -13 -13 -10 -8 -3 0 0 0 0 0 -1 -1 0 0 0 0
-36 0 0 0 0 0 0 0 -1 -4 -6 0 0 0 0 0 0 0 0 0 0 0 -4 -4 -4 -8 -19 -16 -9 -11 -15 -16 0 0 0 0 0 0 0 0 0 0 0
-10 0 0 0 0 0 0 0 -2 -1 0 0 0 0 0 -1 -1 -1 -1 0 0 0 -3 -11 -18 -18 -12 -17 -12 -8 -12 -17 -2 -1 -4 0 -3 0 0 0 0 0 0
0 0 0 0 0 0 0 -1 0 0 0 0 0 0 0 -4 -7 -7 -7 -6 -3 -7 -9 -9 -12 -19 -15 -12 -17 -15 -11 -20 -3 -4 -32 -8 -5 0 0 0 -16 0 0
0 0 0 0 -1 -2 -1 -1 0 0 0 0 0 -5 -9 -9 -7 -7 -6 -15 -7 -12 -15 -19 -26 -31 -24 -20 -19 -32 -27 -57 -20 -9 -15 0 -5 0 0 0 -13 0 0
0 -2 -2 -7 -3 -4 -2 -3 -3 -1 -4 -3 -5 -12 -14 -1 -3 -3 -22 -14 -7 -17 -12 -18 -23 -28 -44 -21 -15 -38 -45 -43 -68 -21 -7 -21 -6 -1 0 0 0 -1 0
-7 -12 -14 -28 -21 -8 -10 -2 -1 -10 -11 -9 -9 -8 -7 -15 -17 -25 -18 -30 -27 -24 -23 -20 -23 -38 -36 -2 -1 -10 -6 -34 -62 -28 -12 -22 -6 0 0 -2 0 0 0
-54 -35 -34 -26 -16 -14 -12 -4 -1 -17 -19 -18 -7 -18 -26 -25 -24 -17 -17 -18 -20 -46 -8 -13 -13 -10 -10 -5 -3 -4 -8 -29 -26 -40 -19 -30 -7 -4 0 0 -4 -2 -1
-79 -56 -33 -16 -4 -8 -12 -6 -6 -21 -29 -36 -41 -38 -41 -35 -29 -18 -11 -21 -25 -19 -11 -27 -9 -16 -13 -13 -9 -9 -18 -17 -24 -48 -40 -57 -8 -2 0 -2 -2 -4 0
-119 -86 -42 -22 -6 -3 -2 -5 -6 -18 -40 -43 -46 -55 -55 -38 -18 -18 -16 -20 -22 -16 -11 -9 -16 -11 -8 -8 -38 -7 -10 -18 -30 -25 -38 -26 -19 -8 -3 -2 -3 -3 0
-154 -128 -72 -42 -24 -4 -8 -8 -16 -23 -45 -50 -55 -56 -64 -45 -23 -12 -13 -11 -15 -18 -17 -16 -9 -8 -10 -19 -20 -9 -13 -17 -21 -31 -10 -18 -35 -18 -10 -6 -7 -3 -1
-173 -139 -110 -62 -36 -7 -10 -21 -26 -53 -52 -63 -68 -75 -72 -60 -28 -20 -10 -8 -8 -21 -24 -19 -10 -11 -8 -56 -74 -21 -13 -15 -10 -62 -12 -8 -7 -23 -14 -10 -5 -4 -2
-144 -161 -130 -111 -70 -31 -24 -32 -48 -78 -78 -67 -65 -57 -76 -52 -41 -24 -12 -5 -10 -15 -13 -7 -12 -12 -10 -9 -119 -99 -92 -17 -15 -12 -10 -6 -6 -2 -16 -10 -8 -12 -10
-114 -137 -140 -119 -98 -65 -45 -47 -63 -87 -81 -66 -58 -45 -52 -37 -37 -29 -14 -10 -20 -9 -8 -28 -11 -27 -43 -91 -42 -32 -60 -28 -28 -29 -13 -11 -13 -8 -1 -27 -21 -14 -17
-89 -87 -90 -91 -81 -72 -66 -59 -73 -94 -82 -49 -43 -37 -65 -47 -41 -35 -87 -53 -20 -10 -29 -51 -18 -37 -9 -41 0 -22 -36 -53 -19 -21 -11 -5 -10 -11 -5 -9 -3 -2 -19
-72 -76 -93 -92 -65 -78 -95 -106 -110 -134 -72 -40 -34 -42 -57 -54 -50 -47 -76 -27 -37 -8 -1 -5 -20 -29 -21 -128 -5 -27 -19 -23 -18 -15 -7 -3 -4 -4 -8 -5 0 -2 -1
-115 -125 -113 -117 -74 -100 -114 -100 -121 -85 -61 -33 -26 -32 -35 -39 -47 -42 -52 -33 -19 -7 -16 -17 -29 -6 -30 -61 0 -19 0 -11 -7 -17 -15 -7 -7 -3 -4 -19 -12 -1 -1
-137 -127 -120 -122 -95 -120 -71 -87 -79 -57 -39 -40 -27 -19 -21 -30 -33 -41 -94 -63 -21 -14 -5 -14 -25 -8 -32 -117 -123 -24 -5 0 -11 -24 -33 -12 -14 -9 -47 -42 -18 -7 -7
-169 -191 -136 -121 -93 -130 -62 -72 -47 -107 -64 -51 -24 -15 -14 -23 -23 -29 -42 -36 -23 -14 -11 -12 -35 -11 -35 -105 -118 -124 -131 -33 0 -11 -42 -27 -22 -16 -45 -104 -22 -17 -35
-180 -197 -211 -147 -90 -91 -80 -65 -83 -51 -69 -35 -32 -23 -17 -10 -22 -17 -33 -29 -23 -19 -20 -25 -65 -34 -34 -38 -123 -118 -102 0 -59 -17 -25 -15 -19 -18 -30 -107 -10 -19 -34
-180 -179 -203 -160 -128 -90 -92 -92 -65 -69 -51 -47 -40 -33 -24 -18 -13 -18 -23 -28 -27 -19 -26 -29 -55 -92 -70 -42 0 -85 0 0 -49 -46 -25 -16 -15 -36 0 -70 -134 -46 -19
Wind_Speed
15 8 5 5 9 8 9 6 4 4 5 6 8 7 6 4 2 3 4 6 7 8 8 9 9 7 5 5 6 7 7 4 4 3 2 1 4 6 9 6 3 5 5
8 5 4 2 8 7 6 3 2 4 4 5 6 7 7 5 2 6 6 6 7 6 5 6 6 7 7 8 7 6 6 4 4 4 2 3 3 5 7 7 7 8 8
3 5 1 4 6 5 3 2 3 4 4 4 6 6 5 2 4 6 7 7 7 5 3 1 3 4 4 7 8 9 6 4 2 3 4 5 3 3 3 5 10 8 9
2 4 3 3 2 5 4 3 4 4 4 6 5 3 4 6 6 7 6 6 5 4 2 1 3 4 6 6 5 3 4 4 3 3 5 3 3 1 2 6 9 10 10
3 3 3 3 3 4 3 3 3 4 5 4 3 4 6 7 7 8 7 7 6 3 2 2 3 4 3 3 3 5 4 4 5 2 3 4 4 2 2 3 6 7 5
5 4 4 5 3 2 1 3 3 3 3 4 5 6 7 8 9 9 10 9 5 2 2 3 5 6 5 5 5 6 5 5 6 2 2 4 4 5 5 5 6 9 11
7 3 4 3 4 3 4 3 3 4 5 6 6 6 7 8 9 9 11 9 5 2 2 4 5 6 8 7 6 8 10 9 4 2 1 3 3 3 4 7 8 8 11
5 4 4 3 5 5 5 5 5 5 6 6 8 8 9 8 9 9 8 9 8 8 10 10 10 9 10 10 10 14 11 8 8 8 4 6 8 4 2 4 4 8 9
6 3 7 6 7 7 8 8 9 10 11 12 12 12 13 14 14 15 15 17 16 16 15 15 14 11 12 12 16 19 18 11 10 12 6 5 4 4 2 2 4 5 8
4 5 7 10 11 12 13 12 12 14 15 15 15 16 16 19 21 20 20 16 17 17 16 14 14 11 11 12 14 17 20 19 9 11 7 3 4 7 8 6 6 7 8
5 7 8 12 14 14 15 14 15 18 18 18 19 20 20 21 21 19 18 20 15 15 12 11 13 11 10 10 16 16 17 15 14 9 4 4 2 6 8 11 8 9 11
6 8 10 13 14 14 14 15 17 19 19 18 20 21 20 20 20 21 20 19 14 14 7 10 10 11 11 9 13 17 12 10 10 6 4 2 4 6 8 10 9 7 9
8 10 11 12 14 14 15 16 18 19 18 18 21 20 19 20 18 18 17 14 14 11 10 10 11 9 8 8 9 8 10 11 9 6 3 8 8 8 6 5 6 6 11
9 11 10 12 12 13 14 17 17 17 17 19 18 18 18 18 17 16 15 11 12 10 10 6 7 7 8 9 6 6 6 7 7 6 6 10 12 9 8 9 9 7 9
10 10 10 9 11 11 13 15 17 16 17 16 18 17 17 16 16 15 13 12 12 9 6 4 6 6 5 5 6 6 7 7 6 5 6 10 12 11 9 10 9 9 9
10 10 8 8 9 9 12 13 14 15 14 15 15 14 14 16 15 14 12 12 11 9 7 6 4 6 6 6 7 8 7 8 8 7 8 10 10 12 11 11 11 11 10
10 9 8 8 9 10 12 12 13 13 12 13 13 14 13 13 12 12 11 11 10 7 10 10 7 7 5 nan nan 10 7 7 8 7 9 8 10 12 12 12 11 12 12
11 9 8 7 8 10 11 11 11 12 13 14 14 15 13 13 12 11 12 12 12 12 10 9 6 6 8 nan nan nan nan 10 8 5 6 7 7 6 11 12 12 13 12
11 8 8 7 8 8 10 11 11 12 13 13 13 13 12 11 11 12 13 13 12 11 11 8 8 9 12 nan nan nan nan 9 9 nan 6 6 6 7 7 10 10 11 11
11 7 7 6 8 8 10 11 12 13 13 12 11 11 10 9 11 11 11 11 10 10 10 12 12 11 12 nan nan nan nan 3 6 8 10 8 7 5 7 8 9 10 10
12 10 9 8 7 5 7 9 11 12 12 11 10 9 7 7 10 11 8 9 8 8 11 16 16 18 16 nan nan nan nan 4 8 8 8 8 9 9 8 6 7 7 8
11 11 10 9 5 4 5 6 9 8 10 8 5 6 6 7 9 10 8 7 8 8 13 17 18 18 nan nan nan nan nan nan 4 5 7 8 10 8 8 8 8 9 9
11 12 10 9 6 4 3 5 6 8 7 5 5 5 5 7 9 10 10 5 5 8 12 18 20 18 17 nan nan nan nan nan 6 2 4 6 7 8 7 9 11 12 12
10 6 7 8 7 5 6 3 3 1 1 3 3 3 6 9 9 9 8 6 5 7 12 17 17 14 nan nan nan nan nan 9 nan nan nan 5 5 7 9 nan 14 13 13
5 7 7 7 6 4 3 3 4 3 2 1 2 4 5 7 8 7 6 5 6 9 12 14 15 14 14 nan nan nan nan nan 8 8 nan 9 9 11 9 nan nan 13 11
7 8 7 6 4 2 2 4 4 4 3 2 3 3 3 6 7 4 5 3 6 9 13 11 11 13 15 nan nan nan nan nan nan 10 11 10 10 nan nan nan nan nan 11
Wind_Direction
140 143 293 331 337 326 308 315 334 298 339 360 9 11 17 23 78 144 124 102 99 100 85 69 67 57 65 64 65 64 59 39 23 3 17 87 184 199 194 190 116 261 271
181 100 304 308 314 312 303 335 314 319 356 9 16 12 15 29 148 143 120 111 108 102 80 56 53 55 45 38 29 33 32 37 41 15 28 66 141 201 202 196 177 246 263
117 95 84 316 296 307 317 343 340 340 11 16 18 15 35 98 124 127 136 133 119 111 110 59 48 42 27 19 22 23 29 21 342 31 83 94 119 143 176 232 240 261 271
352 42 20 310 346 328 322 357 356 360 13 20 30 45 82 108 119 128 122 100 88 88 79 26 21 37 35 19 360 8 11 340 328 232 112 100 89 244 194 249 256 267 270
322 35 5 332 9 335 340 357 22 28 29 48 76 88 94 109 120 115 104 91 68 32 9 8 26 31 53 36 11 9 356 343 307 329 185 153 130 251 264 261 290 285 300
307 9 355 343 2 27 6 46 50 74 109 122 109 100 98 101 99 98 100 113 129 116 66 51 47 39 33 32 43 35 355 308 326 290 206 181 162 276 325 290 281 273 289
309 6 12 11 65 77 66 85 110 131 129 118 114 104 101 99 97 106 120 136 138 117 52 34 49 62 67 62 49 3 305 293 194 195 169 158 158 354 327 279 264 282 288
315 28 35 78 81 86 99 111 116 114 107 104 93 98 104 109 106 107 112 117 117 104 80 71 68 67 56 48 41 10 342 253 207 184 139 124 133 89 286 278 277 285 292
331 81 101 93 80 82 96 99 100 100 98 93 97 102 104 105 102 100 105 106 102 92 85 80 76 66 57 51 42 37 44 65 155 164 124 108 95 39 303 352 296 281 291
6 94 107 99 91 95 96 94 98 95 92 98 101 98 100 103 101 102 103 99 97 91 89 85 81 74 50 46 40 37 42 58 108 138 146 115 82 328 311 308 295 287 296
74 88 91 90 92 95 101 104 96 91 94 97 97 100 96 103 99 101 108 98 93 93 90 86 73 69 55 52 30 40 56 80 91 120 135 266 68 330 315 302 283 283 292
65 84 93 91 92 94 107 106 99 99 99 103 104 104 103 108 104 104 102 108 116 103 90 88 79 85 69 46 40 35 60 66 79 93 93 349 342 337 309 308 279 290 293
83 106 94 94 93 94 107 112 111 110 111 111 109 110 108 113 108 103 102 105 94 94 82 54 41 43 68 67 40 48 46 38 54 51 33 49 34 24 22 356 329 296 301
92 91 93 91 99 101 114 112 112 113 116 110 114 113 108 107 108 106 102 95 85 81 63 57 39 29 19 33 42 11 15 32 34 36 11 30 29 31 25 25 20 358 339
96 95 93 97 104 107 109 119 118 118 114 112 108 110 110 111 114 115 113 102 97 98 95 67 27 17 8 11 17 10 341 349 358 1 11 19 32 44 29 11 23 17 1
97 97 96 96 101 114 111 112 122 123 124 119 117 111 105 111 114 117 111 103 99 90 80 61 26 20 12 341 347 347 338 335 333 343 351 7 27 43 39 32 16 14 11
114 104 95 101 103 114 108 114 122 124 122 123 122 114 106 105 100 102 102 89 78 75 61 46 28 19 351 nan nan 332 343 325 307 346 359 1 355 9 23 27 21 19 18
111 105 90 117 104 113 118 126 126 126 121 119 120 122 109 103 97 90 82 72 59 53 43 40 21 355 318 nan nan nan nan 327 325 331 344 351 356 8 1 21 20 24 24
112 100 89 102 100 112 119 132 128 123 122 119 120 113 106 94 78 68 60 56 55 53 39 15 6 2 1 nan nan nan nan 306 321 nan 302 335 347 5 6 354 26 21 26
103 93 82 99 100 115 135 137 138 133 127 128 118 112 89 71 50 41 36 47 55 49 7 2 2 360 10 nan nan nan nan 261 286 274 280 288 307 346 2 18 6 356 13
90 68 67 66 74 136 149 144 142 130 135 135 130 110 93 56 39 23 20 31 34 43 15 353 357 9 23 nan nan nan nan 275 280 279 277 274 278 279 287 319 342 331 346
85 77 68 69 74 103 149 143 157 151 134 133 120 97 74 44 22 17 13 18 40 27 356 346 2 10 nan nan nan nan nan nan 314 274 273 277 268 282 287 288 293 301 315
76 62 57 54 46 67 113 185 185 180 175 148 110 81 45 32 17 13 3 20 20 8 358 358 10 11 5 nan nan nan nan nan 21 329 277 271 282 293 292 295 295 295 293
88 83 73 65 43 39 11 333 337 43 91 107 88 44 22 18 3 357 358 349 0 356 2 12 3 8 nan nan nan nan nan 55 nan nan nan 340 343 340 317 nan 310 305 306
61 75 91 90 80 72 42 359 321 8 331 321 346 1 14 360 356 0 337 357 356 357 8 12 3 9 6 nan nan nan nan nan 41 48 nan 350 354 342 332 nan nan 325 311
107 106 95 82 82 38 351 353 352 344 342 284 297 306 342 1 338 9 327 359 354 357 10 12 17 17 16 nan nan nan nan nan nan 45 45 41 29 nan nan nan nan nan 351